User: anonymous   Login
Location: Turtle Rock Observatory
(36.6913°N, 81.9708°W)
Time: 06:20:03
(UTC-04:00)
Language:

Cosmos 1125 Rocket - Orbit

View from above orbital plane
View from above orbital plane
View from above satellite
View from above satellite

Ground track
Ground track

The orbit data is extracted from the following two-line orbital elements,

1 11511U 79078B   17147.90210437 +.00000053 +00000-0 +27018-4 0  9996
2 11511 074.0369 352.5866 0016472 242.8557 117.0917 14.36768915975443
Epoch (UTC): 27 May 2017 21:39:01
Eccentricity: 0.0016472
inclination: 74.0369°
perigee height: 757 km
apogee height: 781 km
right ascension of ascending node: 352.5866°
argument of perigee: 242.8557°
revolutions per day: 14.36768915
mean anomaly at epoch: 117.0917°
orbit number at epoch: 97544

The dashed part of the orbit path shows where the satellite is in the earth's shadow,  

DLR